Flock 4g-3

operational
NORAD ID: 62639 Int'l Des: 2025-009 Owner: PLAN Country: US Constellation: planet
LEOCIRCULARRETROGRADESSO

About Flock 4g-3

Description loading...

Live Position

Loading 3D Globe...

Upcoming Passes

Altitude History

Altitude vs Time

uPlot chart will show altitude changes over time

Two-Line Element Set

1 62639U 25009AG 25315.22242216 .00017857 00000-0 73713-3 0 9991
2 62639 97.4222 33.8241 0002803 18.6051 341.5288 15.24084771 45648
Epoch: Nov 11, 2025 • Age: 15 hours

Current Status

Altitude 522.2 km
Velocity 7.60 km/s
Sub-Earth Point -78.79°S, 172.44°E
Launch Date Jan 14, 2025
Age 0.8 years
Type earth observation

Technical Details

Classification Payload
Mass 5.70 kg
Dry Mass 5.70 kg
Total Mass 5.70 kg
Length 0.30 m
Diameter 0.10 m
Span 0.30 m
Shape Box+2 pan
Manufacturer PLAN
Bus Type Cubesat 3U
Phase Status In Orbit
Owner/State PLAN/US

Large Constellations

Loading constellations...